Location: Stanford
(52.2833°N, 2.4333°W)
Time: 23:48:31
(UTC+00:00)

H-2A R/B - Pass Details

Date: 22 January 2021
Orbit: 577 x 655 km, 98.5° (Epoch: 01 March)

Event Time Altitude Azimuth Distance (km) Brightness Sun altitude
Rises 17:23:03 0° 18° (NNE) 2,979 5.2 -6.8°
Reaches altitude 10° 17:25:21 10° 24° (NNE) 2,054 4.3 -7.1°
Maximum altitude 17:29:43 50° 100° (E) 815 2.4 -7.8°
Drops below altitude 10° 17:33:57 10° 177° (S) 1,996 4.9 -8.4°
Sets 17:36:09 0° 182° (S) 2,884 5.8 -8.7°
